DELTA 1 DEB, 3811

Orbit data source: Space-Track

DELTA 1 DEB, 3811 is space debris in SSO originally from a launch on Sun, 15 Dec 1968 UTC launched from the Air Force Western Test Range (AFWTR). Debris objects in space refer to the collection of defunct objects orbiting the Earth. Examples of debris include non-operational satellites, rocket bodies, and fragments generated from explosions, collisions, or faulty payload assembly.

Loading next visibility...
Identifier
3811, 1968-114C
Orbit
SSO
Last TLE update
3 days ago
Origin
Manufacturer
Unknown
Mission
Spacecraft
Bus & Motor
Unknown
Mass
Unknown
Launch date (UTC)
1968-12-15 (57 years ago)
Launch vehicle
Unknown
Launch site
Air Force Western Test Range (AFWTR)
Object type
Payload
Rocket body
Debris
Shape & HBR
Unknown
Radar Cross Section
Small (<0.1 m²)

Expand to show TLE details & history

TLE from 3 days ago
0 DELTA 1 DEB
1 03811U 68114C   25179.54176406 -.00000007  00000-0  18517-3 0  9993
2 03811 101.8806  99.0646 0137770 150.4260  25.8117 12.76373183633104
Epoch: 2025-06-28T13:00Z
TLE epoch observation values (Epoch: 2025-06-28T13:00:08.414Z)
Latitude
2.90827°
Longitude
167.76005°
Altitude
1,262.705 km
Speed
7.269 km/s
True Right ascension
18h 38m 41s
True Declination
2° 53' 31"
Sunlit
Object was in full shadow at epoch
Visualization orbit readout
Latitude
-0.75086°
Longitude
169.93978°
Altitude
1,271.933 km
Speed
7.26 km/s
Apparent Right ascension
16h 39m 28s
Apparent Declination
-48° 09' 17"
Sunlit
Object is in full shadow
Visualization observer readout
Local Sidereal Time
20:22:41
Azimuth
214.198° SW
Elevation
-10.976°
Doppler factor
1
Orbital elements
Apogee altitude
1,460.126 km
Perigee altitude
1,247.086 km
Semi-major axis
7,731.743 km
Eccentricity
0.01378
Inclination
101.8806°
RAAN
99.0646°
Arg. of periapsis
150.426°
True anomaly
Unknown
Mean anomaly
25.8117°
Eccentric anomaly
Unknown
Mean motion
3.19247 °/min
Orbital period
112.77 mins
BSTAR
0.00018517
Loading maneuver chart data...
Loading SW <> Apogee altitude chart data...
Loading historical data...
Loading historical data...
Loading historical data...
Loading historical data...
Loading historical data...
Loading historical data...
Loading historical data...

DELTA 1 DEB Visibility forecast

Observer location: undefined°, undefined°

Span
Click to sort rows by Start time (UTC) header in descending order
Start Az.
Max El. time (UTC)
Max El. Az.
Max El.
End time (UTC)
End Az.
13 mins2025-07-01 17:20:30.840Z124.558° SE2025-07-01 17:27:30.840Z58.297° ENE32.292°2025-07-01 17:33:30.840Z359.847° N
13 mins2025-07-01 19:11:30.840Z190.712° SSW2025-07-01 19:17:30.840Z250.105° W35.733°2025-07-01 19:24:30.840Z327.547° NNW
12 mins2025-07-02 07:01:30.840Z35.003° NE2025-07-02 07:06:30.840Z93.238° ESE36.084°2025-07-02 07:13:30.840Z173.392° S
|